Humidity-temperature Sensor

Selected Measurement Type: Relative Humidity

 
Relative Humidity [%]     6 entries per hour
Showing data from 9/14/2019 (00:00:00 Z) to 9/7/2019 (00:01:00 Z)
Previous Next [ Day | 3-Days | 7-Days ]
First Last
Prev [ Day | 3-Days | 7-Days ] Next
First Last

Start Time:     :
End Time:     :     
Time (in GMT) :00 :50 :40 :30 :20 :10
Previous Next [ Day | 3-Days | 7-Days ]
First Last
Prev [ Day | 3-Days | 7-Days ] Next
First Last


123 => good data
MM => data is determined as missing
-- => data not received/configured
Back to Top Back to Top
9/14/2019 00:00 to 23:10 89.11 90.04 89.97 88.81 90.44 90.06
9/13/2019 23:00 to 22:10 89.17 88.68 93.29 94.09 91.35 91.69
9/13/2019 22:00 to 21:10 88.66 88.75 89.81 88.87 89.77 92.94
9/13/2019 21:00 to 20:10 93.82 93.02 91.16 90.44 85.69 86.61
9/13/2019 20:00 to 19:10 87.56 86.27 87.17 83.18 83.15 83.89
9/13/2019 19:00 to 18:10 83.38 82.50 83.58 83.83 82.95 83.26
9/13/2019 18:00 to 17:10 83.44 84.81 84.30 87.11 86.82 87.23
9/13/2019 17:00 to 16:10 88.79 88.23 88.40 89.17 89.54 87.05
9/13/2019 16:00 to 15:10 83.28 86.06 87.05 88.21 88.72 89.34
9/13/2019 15:00 to 14:10 86.57 86.84 89.71 90.71 88.66 88.64
9/13/2019 14:00 to 13:10 87.47 85.26 85.61 85.08 84.63 85.67
9/13/2019 13:00 to 12:10 85.57 87.43 88.77 86.98 84.26 83.85
9/13/2019 12:00 to 11:10 86.16 86.68 87.41 86.18 86.27 84.67
9/13/2019 11:00 to 10:10 83.93 83.67 84.69 84.30 84.38 84.96
9/13/2019 10:00 to 9:10 86.23 87.00 87.23 86.86 86.39 86.53
9/13/2019 09:00 to 8:10 86.06 86.27 86.21 84.55 85.00 84.55
9/13/2019 08:00 to 7:10 86.00 85.63 85.73 84.51 83.54 84.46
9/13/2019 07:00 to 6:10 86.80 85.59 84.46 84.71 83.93 84.87
9/13/2019 06:00 to 5:10 85.82 85.43 84.46 85.49 84.94 84.59
9/13/2019 05:00 to 4:10 84.77 85.32 85.59 85.92 84.32 84.57
9/13/2019 04:00 to 3:10 85.53 85.41 84.90 83.56 83.99 85.41
9/13/2019 03:00 to 2:10 84.30 83.87 83.85 84.46 84.77 84.30
9/13/2019 02:00 to 1:10 83.73 84.28 84.32 83.95 83.99 84.90
9/13/2019 01:00 to 0:10 85.22 84.87 85.20 85.32 85.32 86.02
9/13/2019 00:00 to 23:10 84.94 84.71 86.29 86.51 85.43 85.28
9/12/2019 23:00 to 22:10 85.20 86.74 85.51 84.90 85.35 85.28
9/12/2019 22:00 to 21:10 85.14 84.26 84.40 84.03 85.06 85.47
9/12/2019 21:00 to 20:10 84.77 85.22 84.12 83.83 83.60 84.12
9/12/2019 20:00 to 19:10 84.24 84.46 85.12 85.98 84.79 85.04
9/12/2019 19:00 to 18:10 86.04 86.10 88.72 89.01 89.28 89.03
9/12/2019 18:00 to 17:10 88.75 88.17 88.42 88.66 90.53 89.95
9/12/2019 17:00 to 16:10 90.69 91.76 93.86 92.35 92.49 88.72
9/12/2019 16:00 to 15:10 88.95 90.44 89.50 88.21 87.37 88.75
9/12/2019 15:00 to 14:10 91.06 93.43 92.96 92.78 90.14 91.00
9/12/2019 14:00 to 13:10 92.00 91.92 91.20 91.39 93.04 89.65
9/12/2019 13:00 to 12:10 89.58 90.16 90.06 90.16 90.16 91.22
9/12/2019 12:00 to 11:10 93.04 93.72 94.31 94.07 94.21 95.38
9/12/2019 11:00 to 10:10 95.85 96.16 95.79 96.26 96.46 96.18
9/12/2019 10:00 to 9:10 95.30 94.64 95.03 95.01 95.52 95.91
9/12/2019 09:00 to 8:10 95.11 94.70 93.82 92.76 90.28 90.94
9/12/2019 08:00 to 7:10 91.08 91.84 91.67 92.35 93.64 93.97
9/12/2019 07:00 to 6:10 93.99 94.25 95.56 95.60 95.65 95.07
9/12/2019 06:00 to 5:10 93.95 93.99 95.11 95.52 94.09 92.23
9/12/2019 05:00 to 4:10 93.64 94.13 94.56 94.70 93.48 91.73
9/12/2019 04:00 to 3:10 89.95 88.85 88.25 89.67 90.42 89.24
9/12/2019 03:00 to 2:10 86.51 85.78 85.57 87.13 85.94 85.02
9/12/2019 02:00 to 1:10 84.40 84.75 85.02 86.14 85.59 85.63
9/12/2019 01:00 to 0:10 85.96 86.53 87.39 87.56 86.92 86.86
9/12/2019 00:00 to 23:10 86.14 86.41 86.25 85.90 86.21 85.37
9/11/2019 23:00 to 22:10 85.26 85.33 85.96 85.71 84.94 86.39
9/11/2019 22:00 to 21:10 86.12 86.37 85.47 86.37 85.12 85.67
9/11/2019 21:00 to 20:10 85.24 85.57 85.39 84.01 84.36 83.71
9/11/2019 20:00 to 19:10 83.67 83.83 83.17 83.63 84.46 84.67
9/11/2019 19:00 to 18:10 83.28 82.44 82.15 81.99 82.34 81.66
9/11/2019 18:00 to 17:10 80.59 81.27 82.25 81.97 82.50 82.91
9/11/2019 17:00 to 16:10 83.89 85.24 88.44 90.98 92.68 93.66
9/11/2019 16:00 to 15:10 94.05 93.15 92.49 93.23 93.47 93.58
9/11/2019 15:00 to 14:10 93.68 93.86 93.72 93.13 91.94 88.62
9/11/2019 14:00 to 13:10 85.20 85.71 86.74 87.90 88.13 86.90
9/11/2019 13:00 to 12:10 86.74 87.27 87.29 87.43 88.56 88.79
9/11/2019 12:00 to 11:10 87.78 88.34 88.97 89.22 87.62 87.00
9/11/2019 11:00 to 10:10 85.76 85.63 86.06 84.30 84.69 85.57
9/11/2019 10:00 to 9:10 85.71 86.33 85.76 85.88 86.49 85.78
9/11/2019 09:00 to 8:10 84.59 85.45 85.12 86.80 87.02 88.66
9/11/2019 08:00 to 7:10 89.50 85.78 86.47 87.47 86.68 86.88
9/11/2019 07:00 to 6:10 86.00 86.45 86.76 85.35 86.59 87.86
9/11/2019 06:00 to 5:10 87.76 86.74 87.23 88.58 89.85 90.24
9/11/2019 05:00 to 4:10 91.55 90.90 90.38 89.81 87.35 85.67
9/11/2019 04:00 to 3:10 82.99 83.91 84.12 84.38 84.94 85.98
9/11/2019 03:00 to 2:10 86.68 85.80 84.42 84.98 82.29 83.15
9/11/2019 02:00 to 1:10 83.97 86.06 84.49 84.77 84.51 86.78
9/11/2019 01:00 to 0:10 87.00 87.21 87.09 87.07 87.41 85.73
9/11/2019 00:00 to 23:10 83.97 84.73 85.22 85.49 85.55 86.55
9/10/2019 23:00 to 22:10 88.58 90.28 89.85 89.30 90.03 88.31
9/10/2019 22:00 to 21:10 89.67 89.65 86.00 86.08 86.02 87.15
9/10/2019 21:00 to 20:10 87.27 86.68 86.80 88.03 87.50 84.47
9/10/2019 20:00 to 19:10 83.63 83.81 84.06 84.96 84.18 83.42
9/10/2019 19:00 to 18:10 83.46 82.09 83.77 84.38 84.94 85.86
9/10/2019 18:00 to 17:10 86.21 81.89 81.86 82.56 82.93 82.95
9/10/2019 17:00 to 16:10 83.99 82.70 82.85 81.54 81.23 80.21
9/10/2019 16:00 to 15:10 78.44 80.19 78.49 79.00 78.42 80.29
9/10/2019 15:00 to 14:10 79.14 78.87 79.71 79.67 80.86 80.02
9/10/2019 14:00 to 13:10 81.84 81.21 80.94 81.17 82.42 83.32
9/10/2019 13:00 to 12:10 83.52 83.38 84.12 84.26 84.32 82.64
9/10/2019 12:00 to 11:10 81.88 82.09 81.86 81.93 82.56 83.83
9/10/2019 11:00 to 10:10 83.87 83.36 82.85 82.66 83.71 84.30
9/10/2019 10:00 to 9:10 83.22 83.54 84.03 83.44 84.59 83.63
9/10/2019 09:00 to 8:10 83.42 84.83 83.99 84.20 83.28 84.83
9/10/2019 08:00 to 7:10 85.63 86.72 87.17 84.98 86.74 86.76
9/10/2019 07:00 to 6:10 87.54 87.78 87.64 83.50 84.83 88.42
9/10/2019 06:00 to 5:10 88.77 87.05 84.92 87.07 86.16 86.96
9/10/2019 05:00 to 4:10 86.27 86.43 86.06 86.29 86.90 87.56
9/10/2019 04:00 to 3:10 86.41 85.41 84.65 83.73 84.83 84.26
9/10/2019 03:00 to 2:10 82.72 83.71 84.47 84.03 82.52 83.52
9/10/2019 02:00 to 1:10 82.62 82.21 82.87 82.79 83.30 83.56
9/10/2019 01:00 to 0:10 82.48 83.05 82.27 83.46 82.38 82.48
9/10/2019 00:00 to 23:10 83.05 81.60 82.01 81.84 81.19 82.07
9/9/2019 23:00 to 22:10 81.78 82.40 81.25 81.41 82.27 79.90
9/9/2019 22:00 to 21:10 80.12 81.45 82.42 83.11 82.85 83.05
9/9/2019 21:00 to 20:10 83.67 82.72 80.33 80.17 79.55 80.25
9/9/2019 20:00 to 19:10 79.00 78.71 79.65 79.86 81.02 81.23
9/9/2019 19:00 to 18:10 81.31 83.18 82.95 83.56 83.93 84.96
9/9/2019 18:00 to 17:10 84.44 83.32 82.38 81.82 82.21 83.79
9/9/2019 17:00 to 16:10 85.39 86.14 85.51 86.55 87.93 85.69
9/9/2019 16:00 to 15:10 85.26 85.71 85.69 87.54 85.30 87.41
9/9/2019 15:00 to 14:10 89.48 88.97 82.83 84.28 84.83 86.90
9/9/2019 14:00 to 13:10 88.42 86.29 89.05 90.14 88.07 85.47
9/9/2019 13:00 to 12:10 83.77 83.46 83.42 85.41 85.10 83.63
9/9/2019 12:00 to 11:10 84.28 86.78 85.00 85.06 86.39 85.59
9/9/2019 11:00 to 10:10 86.29 83.81 84.20 85.43 85.76 86.23
9/9/2019 10:00 to 9:10 83.20 84.69 87.09 87.35 86.98 85.61
9/9/2019 09:00 to 8:10 81.74 83.54 83.65 83.65 84.89 86.31
9/9/2019 08:00 to 7:10 86.35 88.89 89.26 91.33 91.39 90.83
9/9/2019 07:00 to 6:10 86.68 85.63 86.37 88.56 87.66 82.23
9/9/2019 06:00 to 5:10 83.01 86.18 89.28 87.39 85.35 85.37
9/9/2019 05:00 to 4:10 84.36 86.08 85.24 82.05 83.15 85.51
9/9/2019 04:00 to 3:10 83.34 82.48 83.61 84.01 83.22 83.15
9/9/2019 03:00 to 2:10 83.54 85.92 86.43 87.02 88.70 88.15
9/9/2019 02:00 to 1:10 87.93 86.92 87.02 83.69 85.10 86.72
9/9/2019 01:00 to 0:10 88.70 89.83 90.49 90.67 88.77 85.28
9/9/2019 00:00 to 23:10 86.51 87.45 87.39 86.55 87.29 86.08
9/8/2019 23:00 to 22:10 86.23 84.94 82.89 81.33 82.07 82.09
9/8/2019 22:00 to 21:10 81.37 79.31 80.53 81.35 81.02 80.08
9/8/2019 21:00 to 20:10 79.78 81.11 81.11 81.82 80.55 78.77
9/8/2019 20:00 to 19:10 80.10 79.00 79.92 79.06 80.02 79.14
9/8/2019 19:00 to 18:10 80.47 79.12 79.30 80.06 80.04 78.98
9/8/2019 18:00 to 17:10 79.43 77.79 79.65 78.90 78.49 79.37
9/8/2019 17:00 to 16:10 79.24 79.14 79.80 79.67 79.41 79.59
9/8/2019 16:00 to 15:10 79.28 80.27 78.45 80.23 79.08 80.23
9/8/2019 15:00 to 14:10 81.05 81.37 82.44 82.13 81.93 81.54
9/8/2019 14:00 to 13:10 79.71 78.83 79.98 80.23 81.54 83.07
9/8/2019 13:00 to 12:10 82.46 82.03 83.65 85.43 85.86 85.06
9/8/2019 12:00 to 11:10 86.12 85.55 86.29 84.90 84.75 84.79
9/8/2019 11:00 to 10:10 86.45 87.17 87.05 88.15 84.87 87.70
9/8/2019 10:00 to 9:10 86.27 88.68 86.90 88.36 88.01 88.27
9/8/2019 09:00 to 8:10 88.46 88.38 86.86 86.19 86.59 85.86
9/8/2019 08:00 to 7:10 84.38 88.17 90.46 92.27 90.06 91.14
9/8/2019 07:00 to 6:10 91.94 89.50 87.76 85.33 83.93 85.59
9/8/2019 06:00 to 5:10 85.80 84.96 81.46 82.75 85.06 85.00
9/8/2019 05:00 to 4:10 82.70 81.25 81.97 81.93 81.31 80.90
9/8/2019 04:00 to 3:10 80.62 80.14 80.70 80.04 79.30 79.51
9/8/2019 03:00 to 2:10 80.55 80.14 80.12 79.76 80.12 80.82
9/8/2019 02:00 to 1:10 79.74 79.82 80.72 80.27 79.73 79.82
9/8/2019 01:00 to 0:10 78.63 78.83 79.65 79.20 78.79 79.67
9/8/2019 00:00 to 23:10 79.43 79.12 79.84 80.08 80.02 79.53
9/7/2019 23:00 to 22:10 79.88 80.60 80.33 80.37 81.23 81.60
9/7/2019 22:00 to 21:10 81.62 80.55 81.02 80.47 81.50 81.74
9/7/2019 21:00 to 20:10 81.70 80.94 81.23 81.48 80.45 81.09
9/7/2019 20:00 to 19:10 79.90 80.33 79.69 79.63 80.62 80.74
9/7/2019 19:00 to 18:10 80.82 80.49 80.64 82.85 81.05 81.13
9/7/2019 18:00 to 17:10 81.64 82.50 82.83 83.60 83.09 82.95
9/7/2019 17:00 to 16:10 82.50 82.01 82.72 82.62 83.58 83.28
9/7/2019 16:00 to 15:10 83.28 83.15 82.87 83.97 83.36 83.89
9/7/2019 15:00 to 14:10 82.44 83.05 83.52 84.30 84.08 84.44
9/7/2019 14:00 to 13:10 86.27 85.96 87.21 85.12 84.22 84.83
9/7/2019 13:00 to 12:10 84.42 84.59 83.17 83.69 83.50 83.65
9/7/2019 12:00 to 11:10 84.10 85.18 84.77 83.67 84.47 86.23
9/7/2019 11:00 to 10:10 85.43 87.07 85.65 86.47 87.66 88.54
9/7/2019 10:00 to 9:10 88.58 87.76 87.70 88.11 88.29 88.42
9/7/2019 09:00 to 8:10 88.44 88.01 87.86 86.78 87.09 87.97
9/7/2019 08:00 to 7:10 88.54 90.44 91.02 89.20 87.78 87.25
9/7/2019 07:00 to 6:10 86.51 87.52 87.25 87.41 89.11 88.68
9/7/2019 06:00 to 5:10 90.47 91.00 89.36 88.58 87.76 88.77
9/7/2019 05:00 to 4:10 90.51 87.66 88.31 87.31 86.70 88.25
9/7/2019 04:00 to 3:10 89.11 88.19 87.23 85.18 86.76 87.07
9/7/2019 03:00 to 2:10 87.07 85.35 85.94 84.85 82.13 83.79
9/7/2019 02:00 to 1:10 84.03 85.43 84.69 83.73 85.06 85.16
9/7/2019 01:00 to 0:10 85.24 85.22 85.39 84.08 84.67 84.98